Content
SEND FEEDBACK

Daily
Averages
Monthly
Summary
United States of America

STATEN ISLAND, NEW YORK


Home > North America > United States > New York
Elevation: 152 feet     Latitude: 40 35N     Longitude: 074 09W

WEATHER
 
SELECT A DAY
Number of Records: 193,165;   Date Range: 1/1/95 - 11/21/14
 
SHARE

PRINT THIS DATA

[ ← Previous Day ]
WEATHER ALMANAC - JANUARY 20, 2013
[ Next Day → ]
[ °C ]   °F
Weather ElementAverageHighLow
Temperature43.3 °F55.9 °F (12:51 pm)30 °F (11:51 pm)
Dewpoint20.8 °F28.9 °F (1:51 am)10 °F (11:51 pm)
Humidity44 %73 % (3:51 am)21 % (2:51 pm)
Barometer29.83 in30.05 in (11:51 pm)29.70 in (12:51 pm)
Wind Speed15.5 mph26.5 mph (2:51 pm)
Wind Gust41.4 mph (11:51 am)
Weather ElementAverage
Visibility10 mi
Wind DirectionWSW (253.5 °)

Weather ElementTotal
Precipitation---
Heating Degree Days22.1 (Base 65)
Averaged from 23 records on January 20, 2013
WEATHER CONDITIONS BREAKOUT
WIND DIRECTION BREAKOUT
WEATHER BY HOUR - JANUARY 20, 2013
[ °C ]   °F
Local TimeTemperatureDewpointHumidityBarometerVisibilityWind DirectionWind SpeedGust SpeedPrecipitationEventsConditions
1:51 AM39.9 °F28.9 °F65 %29.87 in10.0 miSouth (190°)9.2 mphScattered Clouds
2:51 AM39.0 °F28.9 °F67 %29.86 in10.0 miSW (220°)10.4 mphPartly Cloudy
3:51 AM37.0 °F28.9 °F73 %29.83 in10.0 miSSW (200°)6.9 mphPartly Cloudy
4:51 AM39.0 °F28.9 °F67 %29.80 in10.0 miSouth (180°)4.6 mphClear
5:51 AM39.0 °F28.9 °F67 %29.77 in10.0 miSSW (200°)9.2 mphClear
6:51 AM39.0 °F28.9 °F67 %29.75 in10.0 miSSW (200°)8.1 mphClear
7:51 AM39.9 °F28.9 °F65 %29.75 in10.0 miSW (220°)9.2 mphPartly Cloudy
8:51 AM45.0 °F28.0 °F52 %29.76 in10.0 miSW (230°)11.5 mphScattered Clouds
9:51 AM48.9 °F28.0 °F44 %29.75 in10.0 miSW (230°)16.1 mph24.2 mphScattered Clouds
10:51 AM54.0 °F28.0 °F37 %29.74 in10.0 miWSW (240°)19.6 mph29.9 mphMostly Cloudy
11:51 AM54.0 °F27.0 °F35 %29.71 in10.0 miWSW (250°)19.6 mph41.4 mphMostly Cloudy
12:51 PM55.9 °F24.1 °F29 %29.70 in10.0 miWest (260°)20.7 mph39.1 mphMostly Cloudy
1:51 PM54.0 °F19.0 °F25 %29.71 in10.0 miWest (260°)25.3 mph34.5 mphMostly Cloudy
2:51 PM53.1 °F14.0 °F21 %29.74 in10.0 miWSW (250°)26.5 mph38.0 mphMostly Cloudy
3:51 PM52.0 °F14.0 °F22 %29.78 in10.0 miWNW (290°)23.0 mph31.1 mphMostly Cloudy
4:51 PM48.0 °F10.9 °F22 %29.82 in10.0 miWNW (290°)21.9 mph32.2 mphScattered Clouds
5:51 PM44.6 °F10.4 °F25 %29.87 in10.0 miWest (280°)19.6 mph34.5 mphScattered Clouds
6:51 PM42.1 °F12.9 °F31 %29.91 in10.0 miWNW (290°)21.9 mph29.9 mphPartly Cloudy
7:51 PM39.0 °F12.0 °F33 %29.95 in10.0 miWNW (300°)15.0 mph23.0 mphClear
8:51 PM37.0 °F14.0 °F39 %29.99 in10.0 miNW (310°)17.3 mph26.5 mphPartly Cloudy
9:51 PM34.0 °F12.0 °F40 %30.00 in10.0 miNW (310°)12.7 mphScattered Clouds
10:51 PM32.0 °F10.9 °F42 %30.03 in10.0 miNW (310°)16.1 mphScattered Clouds
11:51 PM30.0 °F10.0 °F43 %30.05 in10.0 miNW (320°)12.7 mph18.4 mphPartly Cloudy
Hourly data recorded from KEWR, located miles away from Staten Island, New York







STORIES FROM OUR PARTNERS